Regional Weather Roundup
Issued by NWS

Home | Current Version | Previous Version | Graphics & Text | Print | Product List | Glossary On
Versions: 1 2 3 4 5 6 7 8 9 10 11 12 13 14 15 16 17 18 19 20 21 22 23 24 25 26 27 28 29 30 31 32 33 34 35 36 37 38 39 40 41 42 43 44 45 46 47 48 49 50
000
ASUS45 KPSR 281700
RWRAZ

ARIZONA HOURLY REGIONAL WEATHER ROUNDUP
NATIONAL WEATHER SERVICE PHOENIX AZ
1000 AM MST THU MAY 28 2015

NOTE: FAIR INDICATES FEW OR NO CLOUDS BELOW 12,000 FEET WITH NO
SIGNIFICANT WEATHER AND/OR OBSTRUCTIONS TO VISIBILITY.

AZZ001>003-036-281800-
NORTHWEST ARIZONA

CITY           SKY/WX    TMP DP  RH WIND       PRES   REMARKS
KINGMAN        SUNNY     82  25  12 W9        30.05S
$$

AZZ004>008-015-016-018-281800-
NORTH CENTRAL ARIZONA

CITY           SKY/WX    TMP DP  RH WIND       PRES   REMARKS
GRAND CANYON   SUNNY     69  27  20 VRB3      30.22S
WILLIAMS       SUNNY     68  25  19 SE3       30.29S
PRESCOTT       SUNNY     73  23  15 SE6       30.14F
FLAGSTAFF      NOT AVBL
PAYSON         SUNNY     73  23  15 VRB5G12   30.17S
PAGE           SUNNY     72  41  32 CALM      30.09F
$$

AZZ009>014-017-281800-
NORTHEAST ARIZONA

CITY           SKY/WX    TMP DP  RH WIND       PRES   REMARKS
WINSLOW        NOT AVBL
SAINT JOHNS    SUNNY     74  10   8 S7        30.15F
WINDOW ROCK    SUNNY     70  28  21 S8        30.20S
$$

AZZ023-281800-
GREATER PHOENIX AREA

CITY           SKY/WX    TMP DP  RH WIND       PRES   REMARKS
PHOENIX        SUNNY     86  36  16 VRB5      29.93S
GLENDALE       SUNNY     86  39  19 CALM      29.95S
LUKE AFB       SUNNY     85  39  19 NE5       29.93S
DEER VALLEY    SUNNY     85  30  13 CALM      29.95S
SCOTTSDALE     SUNNY     85  35  16 CALM      29.96F
MESA-FALCON    SUNNY     81  36  19 N7        29.95S
MESA-GATEWAY   SUNNY     82  37  20 CALM      29.97S
CHANDLER       SUNNY     84  39  20 CALM      29.95S
$$

AZZ027-028-281800-
SOUTHWEST MARICOPA COUNTY AND PINAL COUNTY

CITY           SKY/WX    TMP DP  RH WIND       PRES   REMARKS
CASA GRANDE    SUNNY     84  37  18 CALM      29.95R
GILA BEND      SUNNY     86  34  15 N5        29.92S
$$

AZZ503-504-507>509-281800-
SOUTHEAST ARIZONA

CITY           SKY/WX    TMP DP  RH WIND       PRES   REMARKS
TUCSON         SUNNY     84  30  14 CALM      30.02S
DAVIS-MONTHAN  SUNNY     83  31  14 NW3       30.00S
RYAN FIELD       N/A     84  34  16 NE5       30.01S
NOGALES        SUNNY     82  28  14 VRB6      30.08S
SIERRA VISTA   SUNNY     77  25  14 SE10      30.14S
SAFFORD        SUNNY     82  28  14 VRB3      30.02F
$$

AZZ020-021-025-026-031-281800-
SOUTHWEST ARIZONA

CITY           SKY/WX    TMP DP  RH WIND       PRES   REMARKS
YUMA           NOT AVBL
$$

CAZ031-033-041-043-047-048-061-281800-
SOUTHERN CALIFORNIA

CITY           SKY/WX    TMP DP  RH WIND       PRES   REMARKS
DOWNTOWN L.A.  CLOUDY    63  55  75 CALM      30.00S HAZE
L.A. AIRPORT   CLOUDY    62  55  77 CALM      30.01S
SAN DIEGO      CLOUDY    64  56  75 NW6       30.02S
BURBANK        SUNNY     64  53  67 E5        29.99F
ONTARIO        PTSUNNY   63  53  70 S5        30.00S HAZE
RIVERSIDE      MOSUNNY   64  54  69 VRB3      30.00F HAZE
PALM SPRINGS   SUNNY     86  46  24 VRB3      29.91S
EL CENTRO NAS  MOSUNNY   84  54  35 CALM      29.89S
IMPERIAL       SUNNY     83  55  38 CALM      29.88R
BLYTHE         SUNNY     87  39  18 MISG      29.90S
$$

NVZ020-UTZ003-281800-
SOUTHERN NEVADA-UTAH

CITY           SKY/WX    TMP DP  RH WIND       PRES   REMARKS
LAS VEGAS      NOT AVBL
SALT LAKE CITY MOSUNNY   63  45  51 S5        30.11S
$$

NMZ009-TXZ055-281800-
NEW MEXICO-WEST TEXAS

CITY           SKY/WX    TMP DP  RH WIND       PRES   REMARKS
ALBUQUERQUE    MOSUNNY   73  31  21 W5        30.15S
EL PASO        MOSUNNY   87  17   7 NW12G17   30.03F
$$


........................KEY........................
SKY/WX - SKY CONDITION/WEATHER
TMP    - TEMPERATURE IN FAHRENHEIT
DP     - DEW POINT IN FAHRENHEIT
RH     - RELATIVE HUMIDITY IN PERCENT
WIND   - DIRECTION AND SPEED IN MILES PER HOUR (MPH)
VRB    - VARIABLE WIND DIRECTION
PRES   - MEAN SEA LEVEL PRESSURE IN INCHES OF MERCURY
         F - FALLING PRESSURE   R - RISING PRESSURE
         S - STEADY PRESSURE
VSB    - VISIBILITY IN MILES
HX     - HEAT INDEX IN FAHRENHEIT
WCI    - WIND CHILL INDEX IN FAHRENHEIT
TC     - TEMPERATURE IN CELSIUS WHICH IS ALSO KNOWN AS
         TEMPERATURE IN CENTIGRADE
AFB    - AIR FORCE BASE
         LUKE AFB IS LUKE AIR FORCE BASE
         DAVIS-MONTHAN IS DAVIS-MONTHAN AIR FORCE BASE
NAS    - NAVAL AIR STATION
         EL CENTRO NAS IS EL CENTRO NAVAL AIR STATION
N/A    - NOT AVAILABLE




USA.gov is the U.S. government's official web portal to all federal, state and local government web resources and services.